• In Hungary
  • List of Countries
  • For 7 days
  • Water Temperature
  • Satellite Maps
  • Weather Map
  • News
  • Weather Widgets
  • user-avatar
    Login

    Hourly Weather Ko Lon

    Today, 24 November, Friday

    Time Temperature Precipitation Wind Pressure Humidity
    00:00 +27°C° 0.1 mm 5 mps 749 mmHg 86%
    01:00 +27°C° 0 mm 4 mps 749 mmHg 87%
    02:00 +27°C° 0.3 mm 5 mps 749 mmHg 88%
    03:00 +27°C° 0.3 mm 5 mps 749 mmHg 88%
    04:00 +27°C° 0.3 mm 5 mps 749 mmHg 89%
    05:00 +27°C° 0 mm 5 mps 749 mmHg 89%
    06:00 +27°C° 0 mm 5 mps 749 mmHg 89%
    07:00 +27°C° 0 mm 5 mps 749 mmHg 88%
    08:00 +29°C° 0 mm 5 mps 750 mmHg 80%
    09:00 +30°C° 0 mm 5 mps 750 mmHg 71%
    10:00 +33°C° 0 mm 5 mps 750 mmHg 63%
    11:00 +34°C° 0 mm 5 mps 750 mmHg 59%
    12:00 +35°C° 0 mm 5 mps 750 mmHg 56%
    13:00 +36°C° 0 mm 4 mps 750 mmHg 53%
    14:00 +35°C° 0 mm 4 mps 749 mmHg 55%
    15:00 +35°C° 0 mm 4 mps 749 mmHg 58%
    16:00 +34°C° 0 mm 4 mps 748 mmHg 61%
    17:00 +33°C° 0.2 mm 4 mps 748 mmHg 67%
    18:00 +30°C° 0.2 mm 4 mps 749 mmHg 73%
    19:00 +29°C° 0.2 mm 5 mps 749 mmHg 78%
    20:00 +28°C° 0.3 mm 5 mps 749 mmHg 81%
    21:00 +28°C° 0.3 mm 6 mps 750 mmHg 83%
    22:00 +27°C° 0.3 mm 7 mps 750 mmHg 85%
    23:00 +27°C° 0.6 mm 6 mps 750 mmHg 86%

    Tomorrow, 25 November, Saturday

    Time Temperature Precipitation Wind Pressure Humidity
    00:00 +27°C° 0.6 mm 6 mps 750 mmHg 87%
    01:00 +27°C° 0.6 mm 6 mps 750 mmHg 88%
    02:00 +27°C° 0.9 mm 6 mps 750 mmHg 89%
    03:00 +26°C° 0.9 mm 6 mps 749 mmHg 89%
    04:00 +26°C° 0.9 mm 6 mps 749 mmHg 90%
    05:00 +26°C° 0.7 mm 6 mps 749 mmHg 90%
    06:00 +26°C° 0.7 mm 6 mps 749 mmHg 90%
    07:00 +26°C° 0.7 mm 6 mps 750 mmHg 89%
    08:00 +28°C° 0.1 mm 6 mps 750 mmHg 81%
    09:00 +30°C° 0.1 mm 6 mps 751 mmHg 74%
    10:00 +33°C° 0.1 mm 6 mps 751 mmHg 66%
    11:00 +33°C° 0 mm 6 mps 751 mmHg 64%
    12:00 +34°C° 0 mm 5 mps 750 mmHg 62%
    13:00 +35°C° 0 mm 5 mps 750 mmHg 60%
    14:00 +34°C° 0.4 mm 5 mps 749 mmHg 65%
    15:00 +33°C° 0.4 mm 5 mps 749 mmHg 69%
    16:00 +32°C° 0.4 mm 4 mps 748 mmHg 74%
    17:00 +30°C° 0.6 mm 5 mps 749 mmHg 78%
    18:00 +29°C° 0.6 mm 5 mps 749 mmHg 82%
    19:00 +28°C° 0.6 mm 5 mps 749 mmHg 87%
    20:00 +27°C° 0.3 mm 6 mps 750 mmHg 88%
    21:00 +27°C° 0.3 mm 6 mps 751 mmHg 89%
    22:00 +27°C° 0.3 mm 6 mps 751 mmHg 90%
    23:00 +27°C° 0.1 mm 6 mps 751 mmHg 90%

    Day after tomorrow, 26 November, Sunday

    Time Temperature Precipitation Wind Pressure Humidity
    00:00 +27°C° 0.1 mm 6 mps 751 mmHg 91%
    01:00 +26°C° 0.1 mm 6 mps 751 mmHg 91%
    02:00 +26°C° 0 mm 6 mps 750 mmHg 92%
    03:00 +26°C° 0 mm 6 mps 750 mmHg 92%
    04:00 +26°C° 0 mm 6 mps 749 mmHg 92%
    05:00 +26°C° 0 mm 6 mps 749 mmHg 92%
    06:00 +26°C° 0 mm 5 mps 750 mmHg 91%
    07:00 +26°C° 0 mm 5 mps 750 mmHg 91%
    08:00 +28°C° 0 mm 5 mps 750 mmHg 83%
    09:00 +30°C° 0 mm 5 mps 751 mmHg 75%
    10:00 +32°C° 0 mm 5 mps 751 mmHg 67%
    11:00 +33°C° 0.1 mm 4 mps 751 mmHg 68%
    12:00 +33°C° 0.1 mm 3 mps 750 mmHg 70%
    13:00 +33°C° 0.1 mm 3 mps 749 mmHg 71%
    14:00 +31°C° 1.1 mm 3 mps 749 mmHg 74%
    15:00 +31°C° 1.1 mm 2 mps 748 mmHg 78%
    16:00 +30°C° 1.1 mm 2 mps 747 mmHg 81%
    17:00 +29°C° 2.8 mm 2 mps 748 mmHg 84%
    18:00 +28°C° 2.8 mm 3 mps 748 mmHg 87%
    19:00 +27°C° 2.8 mm 3 mps 749 mmHg 90%
    20:00 +27°C° 2.2 mm 3 mps 749 mmHg 91%
    21:00 +27°C° 2.2 mm 4 mps 750 mmHg 92%
    22:00 +27°C° 2.2 mm 4 mps 751 mmHg 92%
    23:00 +26°C° 1.9 mm 5 mps 750 mmHg 93%

    27 November, Monday

    Time Temperature Precipitation Wind Pressure Humidity
    00:00 +26°C° 1.9 mm 5 mps 750 mmHg 93%
    01:00 +26°C° 1.9 mm 5 mps 750 mmHg 94%
    02:00 +26°C° 2.3 mm 5 mps 749 mmHg 94%
    03:00 +26°C° 2.3 mm 5 mps 749 mmHg 94%
    04:00 +26°C° 2.3 mm 5 mps 748 mmHg 94%
    05:00 +26°C° 1.3 mm 5 mps 749 mmHg 94%
    06:00 +26°C° 1.3 mm 5 mps 749 mmHg 94%
    07:00 +26°C° 1.3 mm 5 mps 749 mmHg 93%
    08:00 +27°C° 0.4 mm 5 mps 750 mmHg 86%
    09:00 +29°C° 0.4 mm 4 mps 750 mmHg 79%
    10:00 +30°C° 0.4 mm 4 mps 751 mmHg 73%
    11:00 +31°C° 0.4 mm 3 mps 750 mmHg 67%
    12:00 +34°C° 0.4 mm 2 mps 750 mmHg 62%
    13:00 +34°C° 0.4 mm 1 mps 749 mmHg 56%
    14:00 +33°C° 0.4 mm 1 mps 748 mmHg 59%
    15:00 +32°C° 0.4 mm 2 mps 748 mmHg 62%
    16:00 +32°C° 0.4 mm 2 mps 747 mmHg 65%
    17:00 +31°C° 1.5 mm 2 mps 748 mmHg 71%
    18:00 +29°C° 1.5 mm 2 mps 748 mmHg 77%
    19:00 +28°C° 1.5 mm 2 mps 749 mmHg 83%
    20:00 +28°C° 0.4 mm 2 mps 749 mmHg 85%
    21:00 +27°C° 0.4 mm 2 mps 750 mmHg 87%
    22:00 +27°C° 0.4 mm 2 mps 750 mmHg 89%
    23:00 +27°C° 0 mm 2 mps 750 mmHg 90%

    28 November, Tuesday

    Time Temperature Precipitation Wind Pressure Humidity
    00:00 +27°C° 0 mm 2 mps 749 mmHg 91%
    01:00 +26°C° 0 mm 2 mps 749 mmHg 93%
    02:00 +26°C° 0.2 mm 3 mps 749 mmHg 93%
    03:00 +26°C° 0.2 mm 3 mps 748 mmHg 94%
    04:00 +26°C° 0.2 mm 3 mps 748 mmHg 94%
    05:00 +26°C° 0.6 mm 3 mps 748 mmHg 94%
    06:00 +26°C° 0.6 mm 3 mps 749 mmHg 94%
    07:00 +26°C° 0.6 mm 3 mps 749 mmHg 94%
    08:00 +27°C° 0.5 mm 3 mps 750 mmHg 89%
    09:00 +29°C° 0.5 mm 3 mps 750 mmHg 84%
    10:00 +30°C° 0.5 mm 3 mps 750 mmHg 79%
    11:00 +31°C° 0.3 mm 3 mps 750 mmHg 73%
    12:00 +32°C° 0.3 mm 2 mps 749 mmHg 67%
    13:00 +34°C° 0.3 mm 2 mps 749 mmHg 60%
    14:00 +32°C° 0.4 mm 2 mps 748 mmHg 67%
    15:00 +31°C° 0.4 mm 2 mps 748 mmHg 74%
    16:00 +30°C° 0.4 mm 1 mps 747 mmHg 81%
    17:00 +29°C° 1.1 mm 1 mps 748 mmHg 83%
    18:00 +28°C° 1.1 mm 2 mps 748 mmHg 86%
    19:00 +27°C° 1.1 mm 2 mps 749 mmHg 89%
    20:00 +27°C° 0.2 mm 2 mps 749 mmHg 90%
    21:00 +27°C° 0.2 mm 2 mps 750 mmHg 90%
    22:00 +27°C° 0.2 mm 2 mps 750 mmHg 91%
    23:00 +26°C° 0 mm 2 mps 750 mmHg 92%

    29 November, Wednesday

    Time Temperature Precipitation Wind Pressure Humidity
    00:00 +26°C° 0 mm 2 mps 749 mmHg 92%
    01:00 +26°C° 0 mm 3 mps 749 mmHg 93%
    02:00 +26°C° 0.5 mm 3 mps 748 mmHg 93%
    03:00 +26°C° 0.5 mm 4 mps 748 mmHg 93%
    04:00 +26°C° 0.5 mm 4 mps 748 mmHg 93%
    05:00 +26°C° 0.5 mm 4 mps 748 mmHg 93%
    06:00 +26°C° 0.5 mm 5 mps 749 mmHg 92%
    07:00 +26°C° 0.5 mm 5 mps 749 mmHg 92%
    08:00 +26°C° 0.8 mm 5 mps 749 mmHg 90%
    09:00 +27°C° 0.8 mm 5 mps 750 mmHg 89%
    10:00 +28°C° 0.8 mm 5 mps 750 mmHg 88%
    11:00 +28°C° 1 mm 5 mps 749 mmHg 87%
    12:00 +28°C° 1 mm 5 mps 749 mmHg 85%
    13:00 +29°C° 1 mm 5 mps 748 mmHg 84%
    14:00 +28°C° 1.4 mm 5 mps 748 mmHg 85%
    15:00 +28°C° 1.4 mm 5 mps 747 mmHg 87%
    16:00 +28°C° 1.4 mm 5 mps 747 mmHg 89%
    17:00 +27°C° 1.9 mm 5 mps 747 mmHg 90%
    18:00 +26°C° 1.9 mm 6 mps 748 mmHg 92%
    19:00 +26°C° 1.9 mm 7 mps 748 mmHg 93%
    20:00 +26°C° 2.3 mm 7 mps 748 mmHg 93%
    21:00 +26°C° 2.3 mm 7 mps 749 mmHg 94%
    22:00 +26°C° 2.3 mm 7 mps 749 mmHg 94%
    23:00 +24°C° 3.8 mm 7 mps 748 mmHg 94%
    Show more